Location: Pedholt
(56.0260°N, 10.2097°E)
Time: 02:53:26
(UTC+00:00)

SR - Pass Details

Date: 01 August 2021
Orbit: 581 x 873 km, 66.7° (Epoch: 27 September)

Event Time Altitude Azimuth Distance (km) Brightness Sun altitude
Rises 12:21:07 0° 313° (NW) 3,231 ? 50.4°
Reaches altitude 10° 12:23:40 10° 318° (NW) 2,253 ? 50.3°
Maximum altitude 12:28:41 54° 36° (NE) 844 ? 50.0°
Drops below altitude 10° 12:33:16 10° 114° (ESE) 2,059 ? 49.8°
Sets 12:35:30 0° 120° (ESE) 2,927 ? 49.6°
